Station 44020 (LLNR 13700) - NANTUCKET SOUND Image indicating link to RSS feed of recent meteorological observations for station 44020


Conditions at 44020 as of
(7:00 am EDT)
1100 GMT on 07/21/2024:
     

Click on the graph icon in the table below to see a time series plot of the last five days of that observation.

5-day plot - Wind Direction Wind Direction (WDIR): W ( 270 deg true )
5-day plot - Wind Speed Wind Speed (WSPD): 11.7 kts
5-day plot - Wind Gust Wind Gust (GST): 13.6 kts
5-day plot - Atmospheric Pressure Atmospheric Pressure (PRES):30.00 in
5-day plot - Pressure Tendency Pressure Tendency (PTDY):+0.03 in ( Rising )
5-day plot - Air Temperature Air Temperature (ATMP): 74.7 °F
5-day plot - Water Temperature Water Temperature (WTMP): 75.2 °F
5-day plot - Dew Point Dew Point (DEWP): 70.3 °F
5-day plot - Wind Speed at 10 Meters Wind Speed at 10 meters (WSPD10M): 11.7 kts
5-day plot - Wind Speed at 20 Meters Wind Speed at 20 meters (WSPD20M): 13.6 kts
5-day plot -  Wind Speed, Wind Gust and Atmospheric Pressure Combined plot of Wind Speed, Gust, and Air Pressure
Supplemental Measurements
Highest 1-minute Wind Speed
Time (EDT)5-day plot - 1-Minute Wind Speed WSPD 5-day plot - 1-Minute Wind Direction WDIR
7:00 am 11.7 kts-
Previous observations
TIME
(EDT)
5-day plot - Wind Direction
WDIR
 
5-day plot - Wind Speed
WSPD
kts
5-day plot - Wind Gust
GST
kts
5-day plot - Wave Height
WVHT
ft
5-day plot - Dominant Wave Period
DPD
sec
5-day plot - Average Wave Period
APD
sec
5-day plot - Mean Wave Direction
MWD
 
5-day plot - Atmospheric Pressure
PRES
in
5-day plot - Pressure Tendency
PTDY
in
5-day plot - Air Temperature
ATMP
°F
5-day plot - Water Temperature
WTMP
°F
5-day plot - Dew Point
DEWP
°F
5-day plot - Salinity
SAL
psu
5-day plot - Visibility
VIS
nmi
5-day plot - Tide (above MLLW)
TIDE
ft
2024-07-21 06:50 amWSW 11.7 13.6 1.3 32.8WSW29.99- 74.5 75.2 70.2---
2024-07-21 06:40 am W 11.7 15.5----29.99- 74.5 75.4 69.6---
2024-07-21 06:30 am W 11.7 13.6----29.99- 74.3 75.4 70.5---
2024-07-21 06:20 am W 11.7 15.5 1.6 32.9WSW29.99- 74.5 75.4 70.2---
2024-07-21 06:10 amWSW 13.6 15.5 1.6-2.9WSW29.98- 74.5 75.4 70.2---
2024-07-21 06:00 amWSW 13.6 15.5----29.98+0.00 74.7 75.4 70.5---
2024-07-21 05:50 amWSW 11.7 15.5 1.6 32.9WSW29.98- 74.8 75.4 70.9---
2024-07-21 05:40 amWSW 13.6 15.5----29.98- 74.8 75.4 70.5---
2024-07-21 05:30 amWSW 11.7 15.5----29.98- 74.8 75.4 70.3---
2024-07-21 05:20 amWSW 13.6 17.5 1.6 33.1WSW29.97- 75.0 75.4 70.5---
2024-07-21 05:10 amWSW 13.6 17.5 1.6-3.1WSW29.97- 74.8 75.4 70.5---
2024-07-21 05:00 amWSW 13.6 17.5----29.97-0.01 74.7 75.4 70.7---
2024-07-21 04:50 amWSW 15.5 17.5 1.3 33.1WSW29.97- 75.2 75.4 70.5---
2024-07-21 04:40 amWSW 13.6 17.5----29.97- 75.4 75.4 70.3---
2024-07-21 04:30 amWSW 13.6 17.5----29.97- 75.4 75.4 70.3---
2024-07-21 04:20 am W 13.6 17.5 1.3 43.2 W29.97- 75.4 75.2 70.3---
2024-07-21 04:10 amWSW 13.6 17.5 1.3-3.2 W29.97- 75.4 75.2 70.7---
2024-07-21 04:00 amWSW 13.6 17.5----29.97-0.03 75.4 75.2 70.7---
2024-07-21 03:50 amWSW 11.7 15.5 1.3 33.3WSW29.97- 75.4 75.2 71.1---
2024-07-21 03:40 amWSW 13.6 15.5----29.97- 75.4 75.2 71.1---
2024-07-21 03:30 amWSW 13.6 17.5----29.98- 75.4 75.4 71.1---
2024-07-21 03:20 amWSW 13.6 17.5 1.3 43.2WSW29.98- 75.4 75.4 71.1---
2024-07-21 03:10 amWSW 13.6 15.5 1.3-3.2WSW29.98- 75.2 75.4 71.2---
2024-07-21 03:00 amWSW 13.6 15.5----29.98-0.02 75.2 75.4 71.2---
2024-07-21 02:50 amWSW 13.6 17.5 1.3 33.2WSW29.98- 75.2- 71.2---
2024-07-21 02:40 amWSW 13.6 15.5 1.3-3.2WSW29.98- 75.2 75.4 71.2---
2024-07-21 02:30 amWSW 13.6 17.5----29.98- 75.4 75.6 71.2---
2024-07-21 02:20 amWSW 15.5 17.5 1.3 43.2WSW29.98- 75.4 75.6 71.1---
2024-07-21 02:10 amWSW 15.5 19.4 1.3-3.2WSW29.98- 75.4 75.6 71.1---
2024-07-21 02:00 amWSW 13.6 17.5----29.98-0.03 75.4 75.9 71.2---
2024-07-21 01:50 amWSW 13.6 17.5 1.3 43.2WSW29.98- 75.4 76.1 71.1---
2024-07-21 01:40 amWSW 13.6 17.5----29.98- 75.4 76.1 71.2---
2024-07-21 01:30 amWSW 13.6 15.5----29.98- 75.4 76.3 71.2---
2024-07-21 01:20 amWSW 13.6 17.5 1.3 33.2WSW29.99- 75.4 76.3 71.2---
2024-07-21 01:10 amWSW 13.6 17.5 1.3-3.2WSW29.99- 75.4 76.3 71.2---
2024-07-21 01:00 amWSW 13.6 17.5----30.00-0.03 75.4 76.3 71.4---
2024-07-21 12:50 amWSW 13.6 17.5 1.3 33.2 SW30.00- 75.2 76.3 71.6---
2024-07-21 12:40 am SW 13.6 17.5----30.00- 75.2 76.3 71.6---
2024-07-21 12:30 am SW 13.6 17.5----30.00- 75.2 76.3 71.6---
2024-07-21 12:20 am SW 13.6 15.5 1.3 33.0WSW30.00- 75.2 76.3 71.2---
2024-07-21 12:10 amWSW 13.6 15.5 1.3-3.0WSW30.00- 75.2 76.3 70.9---
2024-07-21 12:00 amWSW 13.6 15.5----30.00-0.02 75.4 76.3 70.9---
2024-07-20 11:50 pmWSW 13.6 15.5 1.3 32.9WSW30.01- 75.4 76.3 70.7---
2024-07-20 11:40 pmWSW 13.6 17.5----30.01- 75.2 76.3 70.7---
2024-07-20 11:30 pmWSW 13.6 15.5----30.01- 75.2 76.3 70.7---
2024-07-20 11:20 pmWSW 13.6 17.5 1.3 32.8WSW30.01- 75.2 76.3 70.7---
2024-07-20 11:10 pmWSW 13.6 17.5 1.3-2.8WSW30.01- 75.2 76.3 70.9---
2024-07-20 11:00 pmWSW 13.6 17.5----30.01-0.02 75.0 76.3 70.7---
2024-07-20 10:50 pmWSW 15.5 17.5 1.3 32.8WSW30.01- 75.2 76.3 70.5---
2024-07-20 10:40 pmWSW 15.5 17.5----30.02- 75.2 76.3 70.5---
2024-07-20 10:30 pmWSW 15.5 17.5----30.02- 75.0 76.3 70.5---
2024-07-20 10:20 pmWSW 15.5 19.4 1.3 32.7WSW30.02- 75.0 76.3 70.5---
2024-07-20 10:10 pmWSW 15.5 19.4 1.3-2.7WSW30.03- 75.0 76.3 70.9---
2024-07-20 10:00 pmWSW 15.5 19.4----30.03+0.00 75.0 76.3 70.7---
2024-07-20 09:50 pmWSW 15.5 19.4 1.3 32.7WSW30.03- 75.2 76.3 70.7---
2024-07-20 09:40 pmWSW 15.5 17.5----30.02- 75.2 76.3 70.7---
2024-07-20 09:30 pmWSW 15.5 19.4----30.02- 75.4 76.1 70.9---
2024-07-20 09:20 pmWSW 15.5 19.4 1.6 32.8 SW30.03- 75.4 76.1 71.2---
2024-07-20 09:10 pmWSW 15.5 19.4 1.6-2.8 SW30.03- 75.4 76.1 71.1---
2024-07-20 09:00 pmWSW 15.5 19.4----30.03+0.00 75.4 76.1 71.4---
2024-07-20 08:50 pmWSW 15.5 19.4 1.6 32.7WSW30.02- 75.4 76.1 71.4---
2024-07-20 08:40 pmWSW 17.5 19.4----30.02- 75.4 75.9 71.4---
2024-07-20 08:30 pmWSW 17.5 19.4----30.03- 75.4 75.9 71.4---
2024-07-20 08:20 pmWSW 17.5 19.4 1.6 32.7WSW30.03- 75.4 75.7 71.6---
2024-07-20 08:10 pmWSW 17.5 19.4 1.6-2.7WSW30.03- 75.4 75.7 71.6---
2024-07-20 08:00 pmWSW 17.5 19.4----30.03+0.00 75.4 75.7 71.8---
2024-07-20 07:50 pmWSW 15.5 19.4 1.6 32.8WSW30.03- 75.4 75.7 71.8---
2024-07-20 07:40 pmWSW 17.5 19.4----30.03- 75.4 75.7 71.6---
2024-07-20 07:10 pmWSW 17.5 19.4 2.0-2.9WSW30.03- 75.6 75.7 71.2---
2024-07-20 07:00 pmWSW 17.5 21.4----30.03-0.01 75.7 75.7 71.2---
2024-07-20 06:50 pmWSW 17.5 21.4 2.0 32.9 SW30.02- 75.7 75.9 70.9---
2024-07-20 06:40 pm SW 17.5 21.4----30.02- 75.9 75.7 71.1---
2024-07-20 06:30 pm SW 15.5 19.4----30.02- 76.1 75.7 71.2---
2024-07-20 06:20 pm SW 15.5 19.4 1.6 32.9 SW30.02- 76.3 75.9 71.1---
2024-07-20 06:10 pm SW 15.5 19.4 1.6-2.9 SW30.02- 76.3 75.9 70.9---
2024-07-20 06:00 pm SW 15.5 19.4----30.02-0.03 76.3 75.9 70.9---
2024-07-20 05:50 pm SW 15.5 19.4 1.6 32.9WSW30.02- 76.3 75.9 70.7---
2024-07-20 05:40 pm SW 17.5 19.4----30.02- 76.3 75.9 70.7---
2024-07-20 05:30 pm SW 17.5 21.4----30.02- 76.3 75.9 70.7---
2024-07-20 05:20 pm SW 15.5 19.4 1.6 33.0WSW30.03- 76.3 75.9 70.7---
2024-07-20 05:10 pm SW 15.5 19.4 1.6-3.0WSW30.03- 76.1 75.9 70.7---
2024-07-20 05:00 pm SW 15.5 17.5----30.03-0.04 76.1 75.9 70.9---
2024-07-20 04:50 pm SW 15.5 19.4 1.6 33.0WSW30.03- 75.9 75.9 70.7---
2024-07-20 04:40 pm SW 15.5 17.5----30.03- 75.6 75.9 70.5---
2024-07-20 04:30 pm SW 13.6 17.5----30.03- 75.6 75.9 70.5---
2024-07-20 04:20 pm SW 15.5 17.5 1.6 33.2WSW30.04- 75.7 75.9 70.3---
2024-07-20 04:10 pm SW 15.5 17.5 1.6-3.2WSW30.04- 75.7 75.9 70.2---
2024-07-20 04:00 pm SW 15.5 17.5----30.04-0.04 75.7 75.9 70.2---
2024-07-20 03:50 pm SW 15.5 19.4 1.6 33.2 SW30.04- 75.6 76.1 70.0---
2024-07-20 03:40 pm SW 13.6 17.5----30.04- 75.6- 70.3---
2024-07-20 03:30 pm SW 13.6 17.5----30.04- 75.6 76.1 70.0---
2024-07-20 03:20 pm SW 15.5 17.5 1.3 33.1 SW30.04- 75.7 76.1 69.6---
2024-07-20 03:10 pm SW 15.5 17.5 1.3-3.1 SW30.05- 75.7 76.1 69.6---
2024-07-20 03:00 pm SW 15.5 17.5----30.05-0.04 75.7 76.1 69.8---
2024-07-20 02:50 pm SW 15.5 19.4 1.3 33.1 SW30.06- 75.7 76.1 69.4---
2024-07-20 02:40 pm SW 15.5 19.4----30.06- 75.7 76.3 69.6---
2024-07-20 02:30 pm SW 15.5 17.5----30.06- 75.7 76.3 69.4---
2024-07-20 02:20 pm SW 13.6 15.5 1.3 33.1 SW30.06- 76.1 76.3 69.4---
2024-07-20 02:10 pm SW 11.7 15.5 1.3-3.1 SW30.06- 76.1 76.3 69.1---
2024-07-20 02:00 pm SW 11.7 15.5----30.07-0.02 75.9 76.3 68.7---
2024-07-20 01:50 pm SW 13.6 15.5 1.0 33.1SSW30.07- 75.9 76.3 68.9---
2024-07-20 01:40 pm SW 13.6 15.5----30.07- 75.7 76.3 68.7---
2024-07-20 01:30 pm SW 11.7 13.6----30.07- 75.4 76.3 69.3---
2024-07-20 01:20 pm SW 11.7 13.6 1.0 33.0 SW30.08- 75.2 76.3 69.4---
2024-07-20 01:10 pm SW 11.7 13.6 1.0-3.0 SW30.08- 75.4 76.5 70.0---
2024-07-20 01:00 pmSSW 13.6 15.5----30.08-0.02 75.2 76.5 70.0---
2024-07-20 12:50 pm SW 11.7 13.6 1.0 32.9SSW30.08- 75.4 76.5 70.0---
2024-07-20 12:40 pm SW 11.7 13.6----30.08- 75.4 76.3 69.8---
2024-07-20 12:30 pm SW 11.7 13.6----30.08- 75.2 76.3 70.3---
2024-07-20 12:20 pm SW 11.7 15.5 1.0 23.0 W30.08- 75.2 76.5 70.3---
2024-07-20 12:10 pm SW 9.7 13.6 1.0-3.0 W30.09- 76.1 76.5 70.3---
2024-07-20 12:00 pmWSW 9.7 11.7----30.09-0.01 76.5 76.5 68.7---
2024-07-20 11:50 amWSW 9.7 11.7 1.0 23.0WSW30.09- 76.3 76.5 68.2---
2024-07-20 11:40 amWSW 7.8 9.7----30.09- 76.1 76.5 68.4---
2024-07-20 11:30 amWSW 7.8 9.7----30.09- 75.9 76.5 68.5---
2024-07-20 11:20 am SW 7.8 9.7 1.0 22.9 W30.09- 75.6 76.5 68.7---
2024-07-20 11:10 amWSW 7.8 9.7 1.0-2.9 W30.09- 75.4 76.5 68.7---
2024-07-20 11:00 amWSW 7.8 9.7----30.09-0.01 75.4 76.5 68.5---
2024-07-20 10:50 am W 7.8 9.7 1.0 22.9 W30.09- 75.2 76.3 67.6---
2024-07-20 10:40 am W 9.7 11.7----30.09- 75.2 76.3 67.3---
2024-07-20 10:30 am W 9.7 11.7----30.09- 75.0 76.3 66.6---
2024-07-20 10:20 am W 11.7 13.6 1.0 22.7 W30.09- 74.8 76.3 66.9---
2024-07-20 10:10 am W 11.7 13.6 1.0-2.7 W30.09- 74.5 76.1 66.9---
2024-07-20 10:00 am W 11.7 13.6----30.10+0.00 74.5 76.1 67.3---
2024-07-20 09:50 am W 11.7 13.6 1.0 22.6 W30.09- 74.3 76.1 67.6---
2024-07-20 09:40 am W 11.7 13.6----30.09- 74.1 75.9 68.0---
2024-07-20 09:30 am W 11.7 13.6----30.09- 73.8 75.9 68.4---
2024-07-20 09:20 am W 13.6 15.5 1.0 22.6 W30.09- 73.6 75.7 68.7---
2024-07-20 09:10 am W 11.7 13.6----30.09- 73.6 75.7 69.3---
2024-07-20 09:00 am W 11.7 13.6----30.10+0.01 73.6 75.7 69.3---
2024-07-20 08:50 am W 11.7 13.6 1.0 22.5WNW30.10- 73.6 75.6 69.1---
2024-07-20 08:40 am W 9.7 11.7----30.10- 73.6 75.6 69.1---
2024-07-20 08:30 am W 11.7 13.6----30.10- 73.6 75.6 68.7---
2024-07-20 08:20 am W 11.7 13.6 1.0 22.5WSW30.10- 73.4 75.4 68.5---
2024-07-20 08:10 am W 11.7 13.6 1.0-2.5WSW30.10- 73.4 75.4 68.9---
2024-07-20 08:00 am W 11.7 13.6----30.11+0.01 73.4 75.4 68.9---
2024-07-20 07:50 am W 11.7 13.6 1.0-2.6 W30.11- 73.2- 69.1---
2024-07-20 07:40 am W 11.7 13.6----30.10-------
2024-07-20 07:30 am W 11.7 13.6----30.10- 73.0 75.4 69.3---
2024-07-20 07:20 am W 11.7 13.6 1.0 22.6WSW30.10- 72.9 75.2 69.1---
2024-07-20 07:10 am W 11.7 13.6----30.10- 72.9 75.2 69.3---
2024-07-20 07:00 am W 11.7 13.6----30.10+0.01 72.9 75.2 69.3---
2024-07-20 06:50 am--- 1.3 22.6WSW30.10- 72.9 75.2 69.4---

Detailed Wave Summary
for 44020 as of (6:40 am EDT)
1040 GMT on 07/21/2024:

These wave data are displayed in rounded times.

     

Click on the graph icon in the table below to see a time series plot of the last five days of that observation.

5-day plot - Significant Wave Height Significant Wave Height (WVHT): 1.3 ft
5-day plot - Swell Height Swell Height (SwH): 0.3 ft
5-day plot - Swell Period Swell Period (SwP): 7.1 sec
5-day plot - Swell Direction Swell Direction (SwD): SW
5-day plot - Wind Wave Height Wind Wave Height (WWH): 1.3 ft
5-day plot - Wind Wave Period Wind Wave Period (WWP): 3.0 sec
5-day plot - Wind Wave Direction Wind Wave Direction (WWD):WSW
5-day plot - Average Wave Period Average Wave Period (APD): 2.8 sec
Previous observations
TIME
(EDT)
5-day plot - Wave Height
WVHT
ft
5-day plot - Swell Height
SwH
ft
5-day plot - Swell Period
SwP
sec
5-day plot - Swell Direction
SwD
 
5-day plot - Wind Wave Height
WWH
ft
5-day plot - Wind Wave Period
WWP
sec
5-day plot - Wind Wave Direction
WWD
 
5-day plot - Wave Steepness
STEEPNESS
 
5-day plot - Average Wave Period
APD
sec
2024-07-21 06:10 am 1.6 0.3 6.7 S 1.6 3.0 WSW N/A 2.9
2024-07-21 05:40 am 1.6 0.3 6.7SSE 1.6 3.0 WSW N/A 2.9
2024-07-21 05:10 am 1.6 0.3 8.3WSW 1.6 3.3 WSW N/A 3.1
2024-07-21 04:40 am 1.3 0.3 7.1WNW 1.3 3.3 WSW N/A 3.1
2024-07-21 04:10 am 1.3 0.3 6.7SSW 1.3 3.7 W N/A 3.2
2024-07-21 03:40 am 1.3 0.0 7.1WSW 1.3 3.4 WSW N/A 3.3
2024-07-21 03:10 am 1.3 0.0 7.7ENE 1.3 3.6 WSW N/A 3.2
2024-07-21 02:40 am 1.3 0.0 7.7ESE 1.3 3.4 WSW N/A 3.2
2024-07-21 02:10 am 1.3 0.3 7.1 S 1.3 3.6 WSW N/A 3.2
2024-07-21 01:40 am 1.3 0.3 6.2 SE 1.3 3.6 WSW N/A 3.2
2024-07-21 01:10 am 1.3 0.3 7.1ENE 1.3 3.3 WSW N/A 3.2
2024-07-21 12:40 am 1.3 0.3 7.1ESE 1.0 3.2 SW N/A 3.2
2024-07-21 12:10 am 1.3 0.3 6.7 SE 1.3 3.1 WSW N/A 3.0
2024-07-20 11:40 pm 1.3 0.3 7.1 SE 1.3 2.9 WSW N/A 2.9
2024-07-20 11:10 pm 1.3 0.3 6.7 S 1.3 2.7 WSW N/A 2.8
2024-07-20 10:40 pm 1.3 0.3 6.2ESE 1.3 2.9 WSW N/A 2.8
2024-07-20 10:10 pm 1.3 0.3 6.7 S 1.3 2.9 WSW N/A 2.7
2024-07-20 09:40 pm 1.3 0.3 6.7 SW 1.3 2.9 WSW N/A 2.7
2024-07-20 09:10 pm 1.6 0.3 6.7SSW 1.6 2.9 SW N/A 2.8
2024-07-20 08:40 pm 1.6 0.3 6.7SSW 1.6 2.7 WSW N/A 2.7
2024-07-20 08:10 pm 1.6 0.3 7.1 S 1.6 2.9 WSW N/A 2.7
2024-07-20 07:40 pm 1.6 0.3 6.7SSW 1.6 2.7 WSW N/A 2.8
2024-07-20 07:10 pm 2.0 0.3 7.1 S 2.0 2.9 WSW N/A 2.9
2024-07-20 06:40 pm 2.0 0.3 5.9SSE 2.0 3.0 SW N/A 2.9
2024-07-20 06:10 pm 1.6 0.3 7.1 S 1.6 2.9 SW N/A 2.9
2024-07-20 05:40 pm 1.6 0.3 5.9SSE 1.6 3.0 WSW N/A 2.9
2024-07-20 05:10 pm 1.6 0.3 6.7 SE 1.6 3.2 WSW N/A 3.0
2024-07-20 04:40 pm 1.6 0.3 7.1 W 1.6 3.3 WSW N/A 3.0
2024-07-20 04:10 pm 1.6 0.3 6.2SSE 1.6 3.4 WSW N/A 3.2
2024-07-20 03:40 pm 1.6 0.3 7.1 SW 1.6 3.3 SW N/A 3.2
2024-07-20 03:10 pm 1.3 0.3 7.1 SE 1.3 3.4 SW N/A 3.1
2024-07-20 02:40 pm 1.3 0.3 5.9 E 1.3 3.2 SW N/A 3.1
2024-07-20 02:10 pm 1.3 0.3 6.2ESE 1.3 3.2 SW N/A 3.1
2024-07-20 01:40 pm 1.0 0.3 7.1 SW 1.0 2.9 SSW N/A 3.1
2024-07-20 01:10 pm 1.0 0.3 6.2 SE 1.0 3.1 SW N/A 3.0
2024-07-20 12:40 pm 1.0 0.3 6.2 E 1.0 2.7 SSW N/A 2.9
2024-07-20 12:10 pm 1.0 0.3 6.7 SE 1.0 2.2 W N/A 3.0
2024-07-20 11:40 am 1.0 0.3 7.1ESE 0.7 2.5 WSW N/A 3.0
2024-07-20 11:10 am 1.0 0.3 7.1ESE 1.0 2.4 W N/A 2.9
2024-07-20 10:40 am 1.0 0.3 4.8ENE 0.7 2.4 W N/A 2.9
2024-07-20 10:10 am 1.0 0.3 6.2SSE 1.0 2.2 W N/A 2.7
2024-07-20 09:40 am 1.0 0.3 7.7SSW 1.0 2.2 W N/A 2.6
2024-07-20 09:10 am 1.0 0.3 5.9 SE 1.0 2.2 W N/A 2.6
2024-07-20 08:40 am 1.0 0.3 7.1ENE 1.0 2.4 WNW N/A 2.5
2024-07-20 08:10 am 1.0 0.3 7.1 SW 1.0 2.4 WSW N/A 2.5
2024-07-20 07:40 am 1.0 0.3 6.7 S 1.0 2.4 W N/A 2.6
2024-07-20 07:10 am 1.0 0.3 6.7WSW 1.0 2.5 WSW N/A 2.6

Plot of wave energy versus frequency (and period)